User: anonymous   Login
Location: Muenchen
(48.1800°N, 11.5800°E)
Time: 15:17:27
(UTC+02:00)
Language:

Iridium 73 - Orbit

View from above orbital plane
View from above orbital plane
View from above satellite
View from above satellite

Ground track
Ground track

The orbit data is extracted from the following two-line orbital elements,

1 25344U 98032C   15185.42139874  .00000302  00000-0  74631-4 0  9998
2 25344 086.4449 144.5581 0001734 078.6364 034.2921 14.48762908904207
Epoch (UTC): 04 July 2015 10:06:48
Eccentricity: 0.0001734
inclination: 86.4449°
perigee height: 728 km
apogee height: 731 km
right ascension of ascending node: 144.5581°
argument of perigee: 78.6364°
revolutions per day: 14.48762908
mean anomaly at epoch: 34.2921°
orbit number at epoch: 90420

The dashed part of the orbit path shows where the satellite is in the earth's shadow,  

DLR